TimeEST,TemperatureF,Dew PointF,Humidity,Sea Level PressureIn,VisibilityMPH,Wind Direction,Wind SpeedMPH,Gust SpeedMPH,PrecipitationIn,Events,Conditions,WindDirDegrees,DateUTC
12:52 AM,37.9,23.0,55,30.12,10.0,North,6.9,-,N/A,,Mostly Cloudy,360,2012-11-06 05:52:00
1:52 AM,36.0,21.9,57,30.14,10.0,Calm,Calm,-,N/A,,Scattered Clouds,0,2012-11-06 06:52:00
3:52 AM,34.0,25.0,70,30.14,10.0,Calm,Calm,-,N/A,,Mostly Cloudy,0,2012-11-06 08:52:00
4:52 AM,32.0,25.0,75,30.15,10.0,Calm,Calm,-,N/A,,Mostly Cloudy,0,2012-11-06 09:52:00
5:52 AM,32.0,26.1,79,30.16,10.0,Calm,Calm,-,N/A,,Overcast,0,2012-11-06 10:52:00
6:52 AM,33.1,26.1,75,30.18,10.0,Calm,Calm,-,N/A,,Mostly Cloudy,0,2012-11-06 11:52:00
7:52 AM,39.0,25.0,57,30.21,10.0,NW,5.8,-,N/A,,Clear,310,2012-11-06 12:52:00
8:52 AM,41.0,23.0,49,30.22,10.0,Variable,3.5,-,N/A,,Clear,0,2012-11-06 13:52:00
9:52 AM,42.1,24.1,49,30.23,10.0,NW,3.5,-,N/A,,Scattered Clouds,320,2012-11-06 14:52:00
10:52 AM,41.0,24.1,51,30.22,10.0,Calm,Calm,-,N/A,,Scattered Clouds,0,2012-11-06 15:52:00
11:52 AM,41.0,23.0,49,30.22,10.0,NE,3.5,-,N/A,,Mostly Cloudy,50,2012-11-06 16:52:00
12:52 PM,42.1,24.1,49,30.21,10.0,Calm,Calm,-,N/A,,Mostly Cloudy,0,2012-11-06 17:52:00
1:52 PM,42.1,24.1,49,30.20,10.0,Variable,3.5,-,N/A,,Clear,0,2012-11-06 18:52:00
2:52 PM,41.0,24.1,51,30.20,10.0,NNE,5.8,-,N/A,,Clear,30,2012-11-06 19:52:00
3:52 PM,39.0,24.1,55,30.20,10.0,North,4.6,-,N/A,,Clear,350,2012-11-06 20:52:00
4:52 PM,37.0,24.1,59,30.21,10.0,Calm,Calm,-,N/A,,Clear,0,2012-11-06 21:52:00
5:52 PM,35.1,24.1,64,30.21,10.0,Calm,Calm,-,N/A,,Clear,0,2012-11-06 22:52:00
6:52 PM,32.0,24.1,73,30.22,10.0,NNW,3.5,-,N/A,,Clear,330,2012-11-06 23:52:00
7:52 PM,32.0,25.0,75,30.22,10.0,North,4.6,-,N/A,,Clear,350,2012-11-07 00:52:00
8:52 PM,37.0,28.9,73,30.20,10.0,NE,5.8,-,N/A,,Mostly Cloudy,50,2012-11-07 01:52:00
9:52 PM,42.1,28.9,60,30.18,10.0,NE,10.4,17.3,N/A,,Mostly Cloudy,50,2012-11-07 02:52:00
10:52 PM,43.0,30.0,60,30.16,10.0,ENE,8.1,-,N/A,,Overcast,70,2012-11-07 03:52:00
11:52 PM,44.1,30.0,58,30.14,10.0,ENE,13.8,20.7,N/A,,Mostly Cloudy,70,2012-11-07 04:52:00